Weather History for Punta Gorda, FL

Change the Weather History Date:

Monday, December 24, 2012

  Actual Average Record
Temperature  
Mean Temperature 60 °F -  
Max Temperature 73 °F 71 °F 82 °F (1997)
Min Temperature 48 °F 49 °F 39 °F (2010)
Degree Days  
Heating Degree Days 4    
Growing Degree Days 10 (Base 50)    
Moisture  
Dew Point 51 °F    
Average Humidity 74    
Maximum Humidity 93    
Minimum Humidity 50    
Precipitation  
Precipitation 0.00 in - - ()
Sea Level Pressure  
Sea Level Pressure 30.10 in    
Wind  
Wind Speed 2 mph (SSE)    
Max Wind Speed 10 mph    
Max Gust Speed -    
Visibility 10 miles    
Events      
Averages and records for this station are not official NWS values.
T = Trace of Precipitation, MM = Missing Value Source: NWS Daily Summary

Daily Weather History Graph

Daily Weather History Graph

Search for Another Location

Airport:

Trip Planner

Search our weather history database for the weather conditions in past years. The results will help you decide how hot, cold, wet, or windy it might be!

Date:

Astronomy

Dec. 24, 2012 Rise Set
Actual Time 7:14 AM EST 5:41 PM EST
Civil Twilight 6:48 AM EST 6:06 PM EST
Nautical Twilight 6:19 AM EST 6:35 PM EST
Astronomical Twilight 5:51 AM EST 7:04 PM EST
Moon 3:02 PM EST (12/24) 3:58 AM EST (12/24)
Length of Visible Light 11h 18m
Length of Day
10h 27m
Waxing Gibbous, 88% of the Moon is Illuminated
Dec 24
Waxing Gibbous
Dec 28
Full
Jan 4
Last Quarter
Jan 11
New
Jan 18
First Quarter

Hourly Weather History & Observations

Time (EST) Temp. Dew Point Humidity Pressure Visibility Wind Dir Wind Speed Gust Speed Precip Events Conditions
12:53 AM 55.0 °F 43.0 °F 64% 30.17 in 10.0 mi Calm Calm - N/A   Clear
1:53 AM 53.1 °F 43.0 °F 69% 30.15 in 10.0 mi Calm Calm - N/A   Clear
2:53 AM 51.1 °F 46.0 °F 83% 30.14 in 10.0 mi East 4.6 mph - N/A   Clear
3:53 AM 48.9 °F 44.1 °F 83% 30.12 in 10.0 mi NE 3.5 mph - N/A   Clear
4:53 AM 50.0 °F 46.0 °F 86% 30.12 in 10.0 mi Calm Calm - N/A   Clear
5:53 AM 48.0 °F 46.0 °F 93% 30.13 in 10.0 mi ENE 3.5 mph - N/A   Clear
6:53 AM 48.0 °F 45.0 °F 89% 30.15 in 10.0 mi Calm Calm - N/A   Clear
7:53 AM 50.0 °F 48.0 °F 93% 30.15 in 10.0 mi Calm Calm - N/A   Clear
8:53 AM 57.0 °F 53.1 °F 87% 30.15 in 10.0 mi Calm Calm - N/A   Clear
9:53 AM 63.0 °F 54.0 °F 72% 30.17 in 10.0 mi Calm Calm - N/A   Clear
10:53 AM 66.9 °F 54.0 °F 63% 30.14 in 10.0 mi SE 3.5 mph - N/A   Partly Cloudy
11:53 AM 71.1 °F 53.1 °F 53% 30.12 in 10.0 mi SSE 6.9 mph - N/A   Clear
12:53 PM 72.0 °F 54.0 °F 53% 30.10 in 10.0 mi South 4.6 mph - N/A   Partly Cloudy
1:53 PM 73.9 °F 54.0 °F 50% 30.08 in 10.0 mi WSW 4.6 mph - N/A   Partly Cloudy
2:53 PM 73.9 °F 54.0 °F 50% 30.06 in 10.0 mi SW 8.1 mph - N/A   Clear
3:53 PM 72.0 °F 54.0 °F 53% 30.06 in 10.0 mi SW 8.1 mph - N/A   Partly Cloudy
4:53 PM 69.1 °F 55.0 °F 61% 30.05 in 10.0 mi SW 5.8 mph - N/A   Clear
5:53 PM 66.9 °F 55.9 °F 68% 30.01 in 10.0 mi SW 10.4 mph - N/A   Scattered Clouds
6:53 PM 64.9 °F 55.0 °F 70% 30.02 in 10.0 mi SSW 3.5 mph - N/A   Clear
7:53 PM 59.0 °F 55.0 °F 87% 30.04 in 10.0 mi ESE 3.5 mph - N/A   Clear
8:53 PM 60.1 °F 55.9 °F 86% 30.05 in 10.0 mi Calm Calm - N/A   Clear
9:53 PM 60.1 °F 55.9 °F 86% 30.07 in 10.0 mi Calm Calm - N/A   Clear
10:53 PM 57.0 °F 54.0 °F 89% 30.07 in 10.0 mi ENE 4.6 mph - N/A   Clear
11:53 PM 57.0 °F 55.0 °F 93% 30.06 in 10.0 mi Calm Calm - N/A   Clear